Wichita Falls, TX

11:04 PM CST on February 06, 2016 (GMT -0600)
Wichita Falls

Weather History for KCWC - September, 2013

Change the Weather History Date:

Sunday, September 15, 2013

  Actual Average (KSPS) Record (KSPS)
Temperature  
Mean Temperature 84 °F 76 °F  
Max Temperature 96 °F 88 °F 106 °F (1965)
Min Temperature 71 °F 64 °F 46 °F (1993)
Degree Days  
Heating Degree Days 0 0  
Month to date heating degree days 0  
Since 1 July heating degree days 0  
Cooling Degree Days 18 11  
Month to date cooling degree days 205  
Year to date cooling degree days 2150  
Growing Degree Days 34 (Base 50)    
Moisture  
Dew Point 61 °F    
Average Humidity 49    
Maximum Humidity 70    
Minimum Humidity 28    
Precipitation  
Precipitation 0.00 in 0.09 in 2.21 in (1996)
Month to date precipitation 1.50  
Year to date precipitation 21.23  
Sea Level Pressure  
Sea Level Pressure 29.99 in    
Wind  
Wind Speed 7 mph (SE)    
Max Wind Speed 14 mph    
Max Gust Speed -    
Visibility 10 miles    
Events      
T = Trace of Precipitation, MM = Missing Value Source: NWS Daily Summary

Daily Weather History Graph

Daily Weather History Graph

Search for Another Location

Airport or City:

Trip Planner

Search our weather history database for the weather conditions in past years. The results will help you decide how hot, cold, wet, or windy it might be!

Date:

Astronomy

Sep. 15, 2013 Rise Set
Actual Time 7:17 AM CDT 7:40 PM CDT
Civil Twilight 6:52 AM CDT 8:05 PM CDT
Nautical Twilight 6:23 AM CDT 8:34 PM CDT
Astronomical Twilight 5:53 AM CDT 9:04 PM CDT
Moon 5:00 PM CDT (9/15) 3:06 AM CDT (9/15)
Length of Visible Light 13h 12m
Length of Day
12h 22m
Waxing Gibbous, 82% of the Moon is Illuminated
Sep 15
Waxing Gibbous
Sep 19
Full
Sep 26
Last Quarter
Oct 4
New
Oct 11
First Quarter

Hourly Weather History & Observations

Time (CDT) Temp. Heat Index Dew Point Humidity Pressure Visibility Wind Dir Wind Speed Gust Speed Precip Events Conditions
12:15 AM 80.6 °F 81.0 °F 58.5 °F 47% 29.96 in 10.0 mi ESE 9.2 mph - N/A   Clear
12:35 AM 79.7 °F - 59.0 °F 49% 29.95 in 10.0 mi ESE 8.1 mph - N/A   Clear
12:55 AM 79.3 °F - 59.0 °F 50% 29.95 in 10.0 mi SE 8.1 mph - N/A   Clear
1:15 AM 79.0 °F - 59.0 °F 50% 29.95 in 10.0 mi SE 9.2 mph - N/A   Clear
1:35 AM 78.8 °F - 59.2 °F 51% 29.95 in 10.0 mi SE 8.1 mph - N/A   Clear
1:55 AM 78.4 °F - 59.4 °F 52% 29.95 in 10.0 mi SE 8.1 mph - N/A   Clear
2:15 AM 77.9 °F - 59.7 °F 53% 29.96 in 10.0 mi ESE 8.1 mph - N/A   Clear
2:35 AM 77.4 °F - 59.7 °F 54% 29.96 in 10.0 mi ESE 8.1 mph - N/A   Clear
2:55 AM 77.0 °F - 59.9 °F 55% 29.95 in 10.0 mi ESE 8.1 mph - N/A   Clear
3:15 AM 76.5 °F - 59.9 °F 56% 29.95 in 10.0 mi ESE 6.9 mph - N/A   Clear
3:35 AM 75.7 °F - 60.1 °F 58% 29.95 in 10.0 mi ESE 5.8 mph - N/A   Clear
3:55 AM 75.2 °F - 60.1 °F 59% 29.95 in 10.0 mi SE 5.8 mph - N/A   Clear
4:15 AM 75.2 °F - 60.3 °F 60% 29.95 in 10.0 mi ESE 5.8 mph - N/A   Clear
4:35 AM 74.5 °F - 60.4 °F 61% 29.95 in 10.0 mi ESE 4.6 mph - N/A   Clear
4:55 AM 74.1 °F - 60.3 °F 62% 29.95 in 10.0 mi East 3.5 mph - N/A   Clear
5:15 AM 73.8 °F - 60.1 °F 62% 29.95 in 10.0 mi ESE 5.8 mph - N/A   Clear
5:35 AM 73.4 °F - 60.1 °F 63% 29.96 in 10.0 mi ESE 5.8 mph - N/A   Clear
5:55 AM 72.9 °F - 60.1 °F 64% 29.97 in 10.0 mi ESE 5.8 mph - N/A   Clear
6:15 AM 72.5 °F - 60.3 °F 65% 29.97 in 10.0 mi ESE 4.6 mph - N/A   Clear
6:35 AM 72.5 °F - 60.4 °F 66% 29.97 in 10.0 mi ESE 5.8 mph - N/A   Clear
6:55 AM 72.0 °F - 60.4 °F 67% 29.98 in 10.0 mi SE 4.6 mph - N/A   Clear
7:15 AM 72.1 °F - 61.0 °F 68% 29.99 in 10.0 mi SE 3.5 mph - N/A   Clear
7:35 AM 71.6 °F - 61.2 °F 70% 30.00 in 10.0 mi SE 3.5 mph - N/A   Clear
7:55 AM 72.5 °F - 61.9 °F 69% 30.00 in 10.0 mi SE 3.5 mph - N/A   Clear
8:15 AM 74.5 °F - 62.1 °F 65% 30.01 in 10.0 mi SSE 5.8 mph - N/A   Clear
8:35 AM 75.2 °F - 61.9 °F 63% 30.02 in 10.0 mi SSE 6.9 mph - N/A   Clear
8:55 AM 76.3 °F - 62.1 °F 61% 30.02 in 10.0 mi SSE 8.1 mph - N/A   Clear
9:15 AM 77.9 °F - 62.2 °F 58% 30.02 in 10.0 mi SSE 8.1 mph - N/A   Clear
9:35 AM 79.5 °F - 62.8 °F 56% 30.03 in 10.0 mi South 6.9 mph - N/A   Clear
9:55 AM 82.0 °F 83.1 °F 62.8 °F 52% 30.03 in 10.0 mi South 6.9 mph - N/A   Clear
10:15 AM 84.0 °F 84.9 °F 62.8 °F 49% 30.04 in 10.0 mi South 10.4 mph - N/A   Scattered Clouds
10:35 AM 85.3 °F 86.1 °F 62.8 °F 47% 30.04 in 10.0 mi SSW 10.4 mph - N/A   Scattered Clouds
10:55 AM 86.7 °F 87.5 °F 62.8 °F 45% 30.04 in 10.0 mi SSW 6.9 mph - N/A   Clear
11:15 AM 87.8 °F 88.5 °F 62.6 °F 43% 30.04 in 10.0 mi South 9.2 mph - N/A   Clear
11:35 AM 89.1 °F 89.3 °F 61.7 °F 40% 30.04 in 10.0 mi SSW 6.9 mph - N/A   Clear
11:55 AM 90.1 °F 90.2 °F 61.5 °F 38% 30.04 in 10.0 mi SW 8.1 mph - N/A   Clear
12:15 PM 91.0 °F 90.9 °F 61.0 °F 36% 30.04 in 10.0 mi SSW 9.2 mph - N/A   Clear
12:35 PM 91.6 °F 91.3 °F 60.4 °F 35% 30.03 in 10.0 mi SSW 4.6 mph - N/A   Clear
12:55 PM 90.7 °F 90.4 °F 60.6 °F 36% 30.02 in 10.0 mi South 5.8 mph - N/A   Clear
1:15 PM 91.4 °F 91.4 °F 61.2 °F 36% 30.02 in 10.0 mi SSW 8.1 mph - N/A   Clear
1:35 PM 91.8 °F 91.2 °F 60.1 °F 34% 30.02 in 10.0 mi SSW 5.8 mph - N/A   Clear
1:55 PM 92.5 °F 92.2 °F 60.1 °F 34% 30.00 in 10.0 mi South 8.1 mph - N/A   Clear
2:15 PM 93.6 °F 93.4 °F 60.3 °F 33% 30.00 in 10.0 mi Calm Calm - N/A   Clear
2:35 PM 93.2 °F 93.3 °F 60.6 °F 34% 29.99 in 10.0 mi SSW 5.8 mph - N/A   Clear
2:55 PM 93.6 °F 93.4 °F 60.1 °F 33% 29.99 in 10.0 mi Calm Calm - N/A   Clear
3:15 PM 95.5 °F 95.6 °F 60.4 °F 31% 29.98 in 10.0 mi South 6.9 mph - N/A   Scattered Clouds
3:35 PM 94.6 °F 93.9 °F 59.2 °F 30% 29.97 in 10.0 mi Calm Calm - N/A   Scattered Clouds
3:55 PM 94.8 °F 94.2 °F 59.0 °F 30% 29.97 in 10.0 mi Calm Calm - N/A   Clear
4:15 PM 96.1 °F 95.2 °F 58.3 °F 28% 29.97 in 10.0 mi SSE 12.7 mph - N/A   Clear
4:35 PM 94.5 °F 93.6 °F 58.3 °F 30% 29.97 in 10.0 mi SSE 9.2 mph - N/A   Clear
4:55 PM 94.3 °F 94.1 °F 59.9 °F 32% 29.97 in 10.0 mi SSE 9.2 mph - N/A   Clear
5:15 PM 93.7 °F 93.7 °F 60.4 °F 33% 29.97 in 10.0 mi SSE 13.8 mph - N/A   Clear
5:35 PM 92.7 °F 92.1 °F 59.9 °F 33% 29.96 in 10.0 mi SE 13.8 mph - N/A   Clear
5:55 PM 92.3 °F 92.0 °F 59.9 °F 34% 29.96 in 10.0 mi SE 12.7 mph - N/A   Clear
6:15 PM 91.6 °F 92.0 °F 61.7 °F 37% 29.97 in 10.0 mi SE 9.2 mph - N/A   Clear
6:35 PM 90.9 °F 91.3 °F 61.7 °F 38% 29.97 in 10.0 mi SE 12.7 mph - N/A   Clear
6:55 PM 90.5 °F 90.7 °F 61.3 °F 38% 29.97 in 10.0 mi SE 10.4 mph - N/A   Clear
7:15 PM 89.4 °F 89.8 °F 62.2 °F 40% 29.97 in 10.0 mi SE 8.1 mph - N/A   Clear
7:35 PM 88.0 °F 88.7 °F 62.8 °F 43% 29.98 in 10.0 mi ESE 8.1 mph - N/A   Clear
7:55 PM 87.1 °F 87.8 °F 62.8 °F 44% 29.98 in 10.0 mi East 5.8 mph - N/A   Clear
8:15 PM 86.2 °F 87.1 °F 63.0 °F 46% 29.99 in 10.0 mi East 6.9 mph - N/A   Clear
8:35 PM 85.5 °F 86.3 °F 63.0 °F 47% 29.99 in 10.0 mi East 8.1 mph - N/A   Clear
8:55 PM 85.1 °F 86.4 °F 63.9 °F 49% 30.00 in 10.0 mi ESE 6.9 mph - N/A   Clear
9:15 PM 84.2 °F 85.6 °F 64.4 °F 51% 30.00 in 10.0 mi ESE 5.8 mph - N/A   Clear
9:35 PM 83.7 °F 85.1 °F 64.4 °F 52% 30.02 in 10.0 mi SE 6.9 mph - N/A   Clear
9:55 PM 83.5 °F 84.9 °F 64.4 °F 52% 30.03 in 10.0 mi ESE 4.6 mph - N/A   Clear
10:15 PM 82.6 °F 84.3 °F 64.9 °F 55% 30.03 in 10.0 mi SE 4.6 mph - N/A   Clear
10:35 PM 82.2 °F 84.0 °F 65.1 °F 56% 30.04 in 10.0 mi SE 4.6 mph - N/A   Clear
10:55 PM 82.0 °F 83.9 °F 65.5 °F 57% 30.04 in 10.0 mi SE 5.8 mph - N/A   Clear
11:15 PM 81.5 °F 83.4 °F 65.5 °F 58% 30.04 in 10.0 mi SE 5.8 mph - N/A   Clear
11:35 PM 81.5 °F 83.6 °F 65.8 °F 59% 30.04 in 10.0 mi SE 5.8 mph - N/A   Clear
11:55 PM 81.1 °F 82.9 °F 65.3 °F 58% 30.04 in 10.0 mi SE 5.8 mph - N/A   Clear